GFSSW_250_spd_297.txt.gz
Wind_Speed
55 52 53 52 48 44 49 54 58 63 63 65 65 63 64 69 71 71 69 67 65 64 65 63 64 60 56 55 64 65 61 59 60 59 59 61 61 62 65 65 71 73 77 78 80
56 53 55 55 56 54 57 57 60 64 67 67 69 72 75 72 72 70 77 69 69 69 70 69 69 67 62 55 60 65 63 62 62 64 63 63 64 64 68 68 74 79 81 82 86
56 57 56 57 55 58 59 60 61 66 68 68 74 71 74 75 77 77 75 76 75 74 73 69 70 69 62 57 58 65 65 66 66 65 65 66 67 67 69 70 76 80 86 90 93
55 56 59 58 57 59 64 64 68 69 71 69 72 71 72 74 75 80 80 78 78 76 77 79 73 66 66 60 57 60 67 66 64 66 64 64 66 67 72 75 75 81 85 89 93
58 59 61 59 61 60 61 64 65 68 68 69 75 74 79 81 80 80 83 81 80 80 77 73 62 64 61 56 57 57 64 66 63 64 65 67 67 69 73 75 79 84 87 90 96
62 60 59 59 61 63 63 68 74 71 73 74 74 75 79 82 83 84 85 83 83 79 76 63 57 55 54 56 56 56 61 66 65 66 67 68 68 71 73 79 84 85 91 96 100
65 65 63 60 61 65 68 70 71 72 73 75 77 79 84 88 90 92 93 87 81 78 70 56 52 49 51 54 54 56 58 65 64 63 65 68 70 72 77 80 83 90 94 101 99
63 67 66 65 69 74 75 75 75 76 81 83 86 86 86 95 103 100 91 82 77 73 61 51 48 44 46 50 51 55 57 62 66 60 62 67 67 73 77 81 85 92 98 104 104
72 72 72 71 76 77 82 80 80 84 90 89 90 90 97 102 109 90 78 75 69 66 53 47 42 40 42 48 49 50 55 62 59 58 63 64 68 76 77 84 89 94 100 105 104
75 77 77 79 83 87 87 86 85 91 93 94 95 96 99 101 107 80 72 63 65 56 48 41 36 37 40 41 45 49 56 59 62 61 64 67 74 74 78 82 88 94 100 101 106
81 82 83 86 88 89 90 90 90 92 97 97 94 98 104 109 100 71 58 59 59 48 43 38 35 32 36 39 42 49 56 55 55 59 63 69 69 75 79 84 90 97 95 101 95
86 84 87 86 88 91 96 95 92 93 91 94 96 101 110 99 80 61 56 58 48 42 37 35 33 31 32 35 37 43 52 54 53 56 61 65 72 73 81 86 92 91 96 89 91
89 90 94 97 93 99 103 95 93 91 91 98 97 101 103 82 67 56 55 49 42 37 34 32 29 28 29 34 41 44 43 46 52 54 59 62 66 71 78 89 89 94 87 80 80
95 96 99 98 99 99 99 99 94 97 92 90 95 105 91 73 62 52 50 42 37 32 31 29 24 24 29 31 37 35 39 47 54 59 59 61 63 70 78 85 91 89 81 83 80
99 97 98 97 98 97 100 103 102 98 92 97 105 106 81 66 55 49 43 37 34 30 29 27 24 26 30 33 36 39 46 51 54 55 60 63 64 71 81 85 87 85 80 83 78
96 99 97 99 98 97 102 103 105 105 109 106 104 88 67 56 52 47 38 34 31 27 27 27 26 27 31 30 34 40 43 48 52 55 58 63 68 76 77 77 82 77 77 77 70
104 105 105 103 102 103 106 107 109 108 108 105 89 70 62 52 50 43 36 32 30 25 25 28 28 29 33 32 34 38 43 46 51 55 58 61 68 73 73 72 72 71 76 72 56
114 114 114 108 104 107 110 108 107 108 105 86 71 65 54 50 48 41 35 31 28 25 24 26 26 31 32 36 37 39 42 45 48 51 56 61 66 68 67 70 67 65 67 60 45
122 122 117 112 110 104 105 107 103 103 95 76 63 61 49 47 41 38 34 31 28 25 25 28 30 30 31 34 36 40 41 43 49 51 57 61 63 66 68 65 64 65 64 50 37
108 97 99 102 99 101 101 94 95 86 83 67 59 53 46 42 38 38 33 31 28 26 26 29 32 29 30 31 34 38 42 46 49 51 54 58 61 66 64 65 64 58 56 40 28
87 82 82 80 81 76 79 75 69 70 63 58 55 47 41 38 38 36 32 29 28 27 27 28 32 37 35 35 37 40 44 45 48 50 52 56 61 56 56 57 58 52 48 32 19
76 73 70 68 63 59 59 56 56 56 52 52 47 41 39 37 39 35 30 29 28 26 26 28 30 34 36 37 39 43 44 46 48 51 51 56 50 49 53 54 50 48 38 25 10
68 64 64 60 58 55 51 49 50 50 49 46 40 39 37 37 37 32 30 29 27 26 26 28 28 30 35 39 41 41 43 46 47 48 48 43 42 47 47 46 44 44 28 17 2
62 59 60 56 51 46 44 46 46 45 42 40 40 38 37 36 33 31 31 29 26 25 27 28 29 30 30 32 33 37 40 42 43 39 36 36 40 42 42 39 39 36 22 11 11
59 56 54 51 45 42 43 43 41 40 35 34 38 37 35 32 30 29 30 28 26 24 26 27 29 31 30 31 32 34 36 35 30 31 29 34 39 40 35 35 35 30 19 5 18
55 52 51 49 44 41 41 40 40 37 35 35 36 36 30 32 29 30 29 28 25 23 22 23 24 26 27 28 29 28 27 26 27 26 27 33 33 35 28 31 30 27 15 3 24
48 47 44 46 41 39 38 39 38 35 36 37 35 33 30 29 29 31 29 26 24 22 20 17 18 20 21 23 24 24 24 23 22 24 26 27 31 26 24 28 26 23 13 8 28

GFSSW_250_spd_303.txt.gz
Wind_Speed
47 45 41 44 46 47 47 43 43 46 47 48 49 47 44 43 45 49 51 54 57 61 59 63 64 68 67 71 75 76 76 74 67 71 63 65 67 67 67 68 71 71 71 72 73
44 43 43 44 45 44 44 45 47 48 48 49 51 49 49 47 48 52 54 58 63 62 65 71 77 77 76 78 77 81 82 76 74 69 66 66 67 72 69 70 74 73 74 75 76
45 47 49 49 51 49 52 51 50 50 51 51 53 56 56 58 57 60 64 67 69 74 78 78 80 76 76 75 78 83 81 79 73 70 67 68 69 72 71 71 73 73 77 78 81
52 54 55 57 56 55 57 55 54 53 55 58 59 61 63 64 66 66 69 70 76 76 72 75 73 72 74 79 79 84 80 72 70 67 68 68 70 73 70 73 74 76 79 76 78
58 59 59 58 58 59 60 61 61 63 65 67 67 67 68 69 71 73 75 75 72 78 76 71 73 74 77 80 82 81 70 65 66 63 67 67 69 73 74 72 75 74 75 81 81
62 62 62 62 64 65 67 67 66 68 69 71 74 75 75 78 76 76 75 74 78 76 74 71 76 78 78 80 82 73 63 60 63 65 62 60 61 65 72 72 73 76 79 84 82
68 69 69 70 71 72 71 71 73 73 72 74 75 77 80 77 78 78 79 80 78 77 77 76 79 79 81 81 74 63 56 58 59 59 55 57 58 62 69 70 77 78 76 78 79
76 77 78 77 77 80 80 76 77 78 78 80 81 82 81 81 79 81 82 80 80 78 82 83 84 80 86 77 65 58 58 57 55 53 51 54 57 59 64 70 71 70 77 78 79
83 84 84 85 85 86 86 85 84 84 83 86 85 84 86 87 84 83 83 80 83 85 89 90 86 83 83 68 58 56 54 51 50 52 52 51 54 54 60 62 65 70 75 76 80
88 89 89 90 88 89 88 88 91 90 90 90 90 92 91 91 84 79 79 84 86 90 94 95 88 79 79 61 54 52 49 48 48 47 47 49 48 46 53 59 64 67 70 74 79
92 91 91 92 92 92 93 94 94 95 95 96 97 94 86 83 81 82 82 83 93 95 97 91 85 82 71 55 51 48 45 45 43 38 41 42 43 47 53 58 64 70 73 74 77
92 91 91 90 91 94 94 94 93 92 90 92 95 85 87 86 87 87 89 96 99 102 94 81 80 78 61 51 46 43 42 38 33 32 34 38 41 42 42 46 55 61 67 70 75
86 89 92 93 94 93 91 90 90 92 90 86 92 92 94 94 95 97 97 100 101 95 75 70 72 67 53 47 40 39 36 31 25 28 33 33 34 39 44 51 57 61 68 74 78
94 93 95 94 93 93 93 94 95 97 93 92 101 103 103 103 101 103 105 101 89 71 66 63 62 55 46 43 34 32 28 26 26 30 32 34 40 44 48 52 55 61 67 70 79
101 103 101 98 97 96 97 99 100 103 103 99 102 107 110 106 105 101 87 78 68 62 61 56 53 44 41 37 31 27 27 28 27 31 37 41 41 44 48 53 57 61 68 75 77
108 109 109 107 104 104 104 105 107 106 109 110 109 112 111 107 102 87 70 59 60 55 55 48 41 38 37 32 28 26 28 29 33 37 41 41 41 45 50 54 60 65 71 73 73
115 115 116 115 115 112 113 110 110 109 110 110 114 108 97 93 82 67 56 51 54 49 47 40 35 34 32 29 30 29 30 33 37 41 41 42 44 46 50 56 61 66 71 69 64
125 119 120 121 123 118 117 116 115 109 106 103 90 82 75 75 63 58 46 46 45 42 39 34 34 31 28 29 33 30 32 34 37 42 43 44 44 46 49 55 59 62 62 60 55
117 119 116 112 109 104 104 101 98 97 86 80 76 70 67 64 55 49 42 39 39 38 33 31 30 27 26 29 34 33 31 33 38 42 42 41 42 46 48 51 54 56 54 51 47
105 106 100 101 99 96 88 84 79 73 64 59 62 59 60 55 48 42 40 35 36 32 29 27 28 25 25 29 32 34 33 35 38 39 38 39 43 45 48 48 49 49 47 44 41
94 92 93 91 83 80 77 72 68 64 59 52 53 54 54 48 43 38 36 33 33 28 25 25 25 24 26 30 32 34 34 34 36 34 36 40 43 47 46 46 47 46 44 40 35
91 86 83 83 78 73 70 64 59 56 52 49 49 48 47 42 40 37 32 30 29 25 26 25 22 24 26 30 32 33 35 35 35 34 37 42 42 42 41 43 43 42 39 37 26
80 79 77 75 70 67 64 60 53 49 45 44 43 43 41 39 37 33 31 28 27 27 26 22 21 23 26 29 31 33 35 36 37 38 38 37 36 36 38 39 41 38 36 30 20
76 73 73 71 68 65 61 56 49 47 44 42 39 37 38 36 34 32 30 28 28 27 24 20 20 23 25 26 28 30 33 34 33 31 31 31 30 33 33 37 37 34 31 23 13
72 69 67 67 65 63 59 53 46 43 41 39 38 35 36 35 32 29 29 28 27 24 22 20 20 22 24 25 25 26 26 26 26 26 26 26 28 27 31 35 32 32 27 15 8
67 64 65 62 59 57 53 49 47 43 41 38 36 35 33 31 29 27 27 26 24 23 21 20 21 21 23 24 25 24 25 25 23 23 23 23 22 24 30 31 29 29 22 9 10
61 59 56 57 55 52 50 45 43 42 40 38 35 34 32 29 27 27 26 25 24 23 20 20 22 21 22 24 24 23 22 20 21 20 21 18 19 23 28 28 26 26 17 6 13

GFSSW_250_spd_306.txt.gz
Wind_Speed
40 39 38 40 41 41 42 45 44 47 46 48 48 46 47 46 46 49 49 50 51 54 58 61 64 65 66 71 67 71 69 64 68 71 74 76 74 77 77 72 74 75 79 76 71
41 42 42 46 47 48 48 48 53 52 52 52 52 51 49 50 52 55 57 59 59 61 63 65 68 71 71 68 74 72 70 70 74 75 79 77 80 77 82 79 75 77 78 77 78
48 48 49 51 52 52 54 56 58 55 56 57 57 58 58 59 59 60 62 65 65 67 70 73 70 68 68 71 69 65 70 75 76 80 82 80 82 83 79 81 76 78 79 80 80
52 53 54 55 56 57 58 61 60 61 61 63 66 66 66 65 65 65 67 68 70 73 73 70 71 69 71 71 68 69 74 77 77 82 81 80 79 77 74 74 73 76 78 81 82
57 59 60 60 61 62 63 64 65 67 69 70 71 72 70 72 70 72 72 70 71 73 74 76 76 70 70 68 76 76 76 78 79 80 79 73 69 63 67 71 70 74 77 77 82
65 66 67 68 69 70 70 71 72 73 75 77 77 78 79 79 78 77 77 77 78 80 84 84 77 72 70 76 79 83 83 78 76 79 70 62 60 56 60 61 67 70 73 77 76
73 73 74 75 76 77 78 78 79 80 81 82 82 83 84 84 83 83 83 84 83 85 86 78 69 72 78 80 87 87 82 77 73 74 62 59 59 59 61 61 62 66 68 72 72
78 79 79 80 82 82 82 83 84 85 85 88 85 85 86 85 86 87 89 86 84 88 81 79 79 81 89 89 88 88 80 74 70 64 56 55 55 56 54 53 55 59 60 62 70
83 83 84 85 86 87 87 88 89 90 88 89 88 87 85 89 91 87 86 82 81 82 81 80 86 93 93 94 91 87 71 69 64 59 53 49 50 50 48 48 52 52 53 58 64
86 88 90 90 89 90 89 88 88 88 89 91 89 89 87 89 87 82 81 77 82 82 84 91 94 97 96 98 86 73 61 65 58 55 48 46 45 44 44 45 48 49 49 54 57
90 91 92 92 93 89 91 90 91 88 87 90 93 94 91 86 86 87 84 85 84 87 93 94 96 97 95 89 73 59 56 56 51 48 46 43 43 40 41 41 41 42 45 46 52
90 90 90 89 92 92 91 93 97 95 84 87 90 92 92 89 87 88 89 88 91 92 95 97 96 96 95 73 59 54 53 47 45 42 39 36 33 32 32 34 34 38 42 46 51
93 94 94 92 92 93 94 93 95 98 94 94 98 98 97 96 94 94 94 96 96 98 96 98 88 88 76 60 54 49 46 42 40 36 34 30 23 26 30 32 35 39 42 46 50
103 103 99 97 98 98 99 101 105 108 104 101 102 104 104 104 102 104 101 97 97 95 94 74 81 73 62 53 49 44 40 36 34 30 28 27 28 32 34 34 38 41 44 52 60
109 108 107 104 106 105 107 109 111 111 112 109 106 109 110 107 110 112 102 96 95 88 66 67 69 61 55 46 43 37 35 30 29 27 27 28 32 33 34 37 40 45 51 58 64
114 113 115 114 114 113 114 115 116 117 118 117 112 113 111 109 101 96 89 87 77 66 56 64 59 53 46 41 37 35 31 28 26 27 29 31 34 35 38 42 46 49 54 59 63
121 123 123 123 119 120 118 120 117 117 121 115 111 100 95 87 85 79 76 66 54 48 54 56 53 44 38 35 33 32 29 26 26 28 30 30 32 35 38 42 47 52 56 58 61
127 126 127 127 125 123 120 119 116 109 105 96 88 81 76 75 68 65 62 56 43 43 49 49 45 35 32 31 31 29 27 27 28 30 31 31 32 32 38 43 47 51 55 58 56
127 124 125 121 119 116 115 110 103 93 88 79 72 68 63 63 59 55 53 42 39 41 43 41 36 31 30 29 28 28 28 30 29 29 30 32 31 33 38 43 47 51 52 49 46
115 114 119 113 107 101 96 92 88 87 75 71 64 60 57 55 54 53 46 38 39 39 38 34 30 28 27 26 26 28 28 28 30 31 31 30 32 35 41 44 48 47 45 42 40
106 107 104 102 97 94 86 85 82 77 70 66 60 55 51 50 48 43 40 36 37 36 32 29 25 26 25 25 27 27 27 28 29 30 30 30 33 37 41 46 45 43 41 38 34
102 100 97 93 90 85 79 76 73 68 63 58 51 48 49 48 44 41 38 35 34 31 30 24 24 23 25 24 25 26 27 28 28 28 29 31 34 38 40 41 41 37 35 33 26
95 94 93 92 86 82 79 73 69 65 57 52 48 43 41 40 37 36 35 32 32 29 25 22 21 23 23 22 22 25 27 28 29 30 30 33 35 35 36 37 35 33 31 25 15
88 87 88 82 81 77 74 69 64 59 54 50 45 42 40 38 36 35 34 30 27 26 23 20 21 21 21 20 19 22 26 28 29 28 29 29 29 31 33 33 30 29 25 16 8
79 77 75 74 72 70 69 65 59 53 49 44 41 37 35 33 34 33 30 28 26 24 21 20 20 19 20 18 19 22 23 24 23 23 22 23 26 28 29 29 27 25 19 8 15
69 69 68 65 64 63 62 58 52 48 44 41 37 36 34 32 34 33 29 27 25 21 20 20 19 19 18 17 19 19 20 20 19 19 20 21 23 25 26 26 22 22 11 8 26
63 61 60 57 60 57 55 51 48 45 42 39 38 35 33 32 32 30 28 26 22 20 20 19 19 18 17 17 18 17 18 18 17 16 17 17 19 20 24 22 18 18 8 13 35

GFSSW_250_spd_309.txt.gz
Wind_Speed
49 51 49 47 45 43 43 42 45 46 47 47 48 49 46 48 49 49 50 53 54 54 54 54 58 61 63 66 66 68 63 62 63 65 67 61 64 66 72 79 75 77 75 75 76
47 45 44 43 44 47 49 49 51 50 49 51 52 54 52 55 57 58 59 60 57 58 60 60 59 61 60 60 61 65 68 62 65 65 63 65 69 72 75 82 81 80 77 76 79
50 52 50 49 50 50 51 54 55 56 57 57 58 59 58 60 62 63 65 67 68 68 67 67 67 66 64 66 70 69 67 64 64 65 68 70 78 80 82 86 87 84 77 76 77
53 53 54 56 56 56 58 59 60 61 63 63 63 64 65 67 70 70 71 72 72 74 74 73 71 71 72 70 71 75 65 62 63 69 72 79 84 88 82 86 87 84 76 75 78
60 61 62 62 63 63 65 67 69 70 72 72 72 73 72 74 75 76 76 75 78 78 77 77 77 78 79 78 72 71 68 69 72 77 86 86 87 85 81 80 81 76 70 68 70
68 68 68 69 69 70 71 71 73 75 75 76 77 78 79 79 80 81 82 85 84 82 81 82 83 82 81 79 76 71 71 74 79 87 87 88 87 79 76 74 72 67 65 60 59
77 77 76 77 77 77 76 75 76 78 79 80 81 82 84 85 87 87 88 86 87 87 86 87 86 83 78 76 72 72 73 80 89 87 86 86 77 70 69 68 62 62 63 60 63
79 77 79 80 82 83 81 79 80 81 83 86 87 87 89 89 90 90 90 91 90 89 86 86 84 80 80 73 73 75 79 81 86 87 83 77 65 66 63 57 56 56 54 57 58
85 86 86 86 86 86 86 85 85 86 87 89 90 91 92 91 93 90 91 87 86 86 84 82 83 80 79 78 80 80 81 85 84 81 78 64 62 58 53 51 49 48 49 52 52
88 89 90 90 92 91 91 90 88 87 90 92 93 93 91 90 92 94 93 89 86 85 88 89 89 86 86 86 85 84 83 84 78 73 62 58 57 49 45 45 42 41 44 44 43
94 94 93 95 95 94 94 96 97 94 89 92 91 90 90 90 89 90 90 93 91 91 93 96 94 94 94 91 89 83 81 73 69 57 56 53 48 40 39 39 36 35 33 32 35
101 100 100 101 101 101 102 101 98 99 95 95 95 97 95 97 95 95 95 95 98 98 100 100 102 101 98 86 84 79 74 64 56 50 52 42 37 34 32 33 31 28 29 31 34
105 105 103 105 105 106 106 106 103 99 95 97 100 102 102 102 101 102 100 101 106 106 102 103 103 91 80 78 78 71 61 55 48 46 41 34 31 29 29 29 28 28 30 32 37
106 108 108 109 109 109 108 109 106 105 97 99 102 102 106 109 109 110 108 110 105 101 96 92 80 72 67 72 69 61 52 44 43 41 35 29 26 27 30 31 30 31 34 37 41
113 111 111 112 112 111 108 111 108 104 104 105 108 110 112 115 115 115 106 100 93 87 80 68 67 56 63 59 57 50 46 39 38 34 30 25 26 28 29 30 31 34 37 41 45
119 117 116 119 117 116 116 114 113 113 109 106 109 113 113 114 110 100 90 79 73 68 62 55 51 53 55 53 48 45 39 37 31 30 25 23 27 26 27 29 31 33 37 41 47
123 123 121 123 124 123 119 121 118 119 118 116 114 115 110 102 94 81 72 64 58 54 47 44 46 48 48 45 41 38 35 31 28 28 22 24 27 27 28 30 32 36 39 42 47
126 125 127 124 125 119 120 119 120 119 116 117 116 104 90 85 72 66 63 54 48 45 39 42 44 41 39 36 35 35 30 28 27 24 22 26 28 25 27 30 33 36 40 45 50
124 124 120 124 128 125 125 124 125 118 109 101 91 83 81 73 66 59 54 50 42 39 36 40 37 38 33 31 31 31 27 27 26 24 25 26 24 25 29 31 33 36 42 45 44
108 111 112 106 110 114 119 114 114 100 92 84 81 74 69 63 54 49 47 45 41 38 37 37 35 31 30 30 29 26 25 25 25 25 24 24 24 27 28 31 35 37 39 38 38
106 107 105 102 99 100 100 98 94 92 86 80 74 66 62 58 48 44 42 41 38 35 35 31 29 27 29 28 25 21 24 25 25 24 23 24 25 26 29 32 35 35 34 32 31
89 91 90 91 94 96 96 92 88 86 78 74 67 64 59 53 45 40 40 39 38 34 30 28 24 25 26 24 21 22 25 25 25 23 23 24 24 26 29 32 32 30 28 26 16
72 73 77 75 79 80 82 82 79 74 72 67 62 58 51 43 40 38 36 35 32 28 25 24 23 25 24 21 20 22 23 25 25 24 23 23 25 27 28 28 25 24 24 8 10
65 62 64 66 66 69 70 68 67 63 59 55 51 46 43 38 38 36 35 34 28 24 24 21 25 24 22 19 20 21 23 25 24 21 22 22 23 24 25 23 21 19 13 19 3
60 58 58 56 58 59 61 60 56 52 48 47 43 40 37 34 34 33 32 30 26 24 21 22 23 23 18 19 20 20 19 20 19 20 18 18 19 22 20 17 17 15 20 21 11
52 54 53 50 51 54 54 52 49 45 42 39 36 34 33 32 33 30 29 26 23 22 21 22 23 19 19 20 19 18 18 17 17 18 16 17 18 18 15 13 12 9 38 25 20
52 52 49 46 49 49 49 46 44 40 38 35 32 31 31 30 30 30 27 24 23 22 22 23 21 19 20 19 19 18 18 16 15 14 14 14 14 13 11 12 7 3 44 28 25

GFSSW_250_spd_315.txt.gz
Wind_Speed
53 53 53 55 59 60 60 67 69 67 64 66 64 59 56 53 53 52 52 53 53 53 54 55 56 58 57 56 55 55 56 57 57 57 59 62 64 64 67 69 68 71 70 74 72
58 57 57 56 58 60 61 66 71 71 66 63 64 59 57 57 56 57 59 59 59 60 62 62 62 63 62 61 61 60 63 64 66 67 68 69 71 71 72 74 76 74 74 73 74
62 62 62 61 60 60 61 61 61 65 67 67 62 63 64 63 62 64 65 66 65 67 68 68 69 68 67 67 68 68 73 75 76 75 74 74 73 74 74 73 75 75 78 77 76
71 70 70 69 68 67 64 66 67 66 66 66 67 68 68 68 69 69 69 69 71 72 73 75 74 72 72 72 72 70 77 77 80 80 80 77 74 72 71 72 75 74 75 78 81
80 78 77 76 76 75 74 74 74 73 72 72 71 73 74 74 75 75 75 76 78 79 80 81 81 78 75 75 76 78 82 82 78 76 77 77 78 76 80 80 79 81 82 83 85
90 88 84 83 82 82 82 83 81 81 79 79 78 78 78 80 81 81 81 82 84 84 85 85 83 83 83 84 83 83 86 88 83 81 79 82 82 82 88 87 90 91 88 90 92
97 96 94 91 91 89 88 86 86 87 87 85 86 85 86 85 85 84 85 86 87 88 87 85 85 85 85 88 87 87 87 91 87 88 89 89 88 90 92 92 93 94 93 93 92
103 104 102 100 98 96 97 95 93 93 92 91 91 90 90 91 91 90 89 89 90 91 90 89 88 89 89 89 89 92 89 90 87 89 92 93 92 94 93 93 93 92 90 88 84
103 107 107 106 106 102 103 102 100 101 100 97 96 95 95 95 95 95 93 93 93 93 92 93 92 93 92 92 92 94 94 91 94 94 97 95 95 91 91 86 86 84 76 72 70
106 107 106 107 110 110 107 107 107 105 104 104 101 101 100 99 100 100 99 98 98 97 96 97 96 95 95 96 95 95 95 95 95 97 98 94 90 85 83 78 75 69 66 63 62
112 114 110 109 107 106 108 111 111 109 112 110 107 106 106 105 104 104 106 105 105 103 101 99 100 100 102 98 95 95 96 98 100 97 91 87 83 79 72 65 61 56 54 54 51
119 118 114 114 112 111 110 110 110 111 110 113 111 112 111 109 109 108 108 108 108 108 104 105 104 101 97 96 95 95 99 102 98 95 84 77 72 67 60 53 49 48 45 45 46
110 114 116 117 115 115 113 112 112 113 111 112 109 112 112 110 110 106 107 106 106 106 108 108 105 99 97 99 100 101 97 99 91 80 72 64 62 52 48 43 44 41 39 38 39
105 105 109 112 114 119 117 116 113 118 115 115 117 116 111 108 106 104 103 102 102 101 100 101 101 99 98 98 96 92 90 81 74 65 60 52 52 39 40 40 37 35 34 34 34
100 100 100 103 102 104 112 117 116 106 114 112 111 111 112 113 109 110 111 109 104 104 106 103 99 98 98 98 92 85 75 70 63 55 50 44 40 37 36 33 31 32 32 33 35
87 89 94 94 95 96 97 94 108 111 103 107 104 108 109 103 107 104 104 105 106 100 93 92 88 85 85 80 77 71 69 61 52 47 42 34 34 32 29 28 30 32 32 32 32
81 81 81 80 83 89 95 96 95 93 94 97 97 99 99 101 98 95 90 88 88 82 78 73 68 70 63 65 63 63 58 49 45 39 31 31 30 27 26 29 29 28 28 27 30
73 73 70 69 71 70 75 82 87 88 88 91 91 90 89 92 90 87 80 76 72 65 60 57 52 51 55 56 56 53 48 42 36 31 29 28 26 24 26 27 24 23 25 28 32
72 70 68 67 68 69 66 62 64 69 71 79 83 87 86 86 82 77 78 77 69 55 48 49 45 46 49 48 47 45 38 38 31 31 27 25 23 23 24 22 20 24 26 30 32
70 71 71 73 73 70 63 57 57 58 61 68 75 73 71 72 74 72 70 68 59 51 47 45 40 42 43 43 41 35 37 33 30 29 23 21 22 22 20 17 18 22 26 29 28
73 72 75 73 72 68 62 56 54 52 52 54 55 59 62 64 63 62 61 55 51 43 38 37 38 39 39 37 32 30 32 28 27 23 19 20 21 17 15 13 18 22 23 21 20
69 70 73 70 68 65 61 55 49 45 46 49 49 50 53 55 54 52 49 43 40 34 34 34 37 36 33 32 28 30 27 26 23 18 17 19 18 13 11 12 18 18 19 17 11
62 64 67 68 65 62 59 52 48 44 43 44 47 48 47 45 42 42 35 33 31 30 33 32 34 30 29 26 28 27 24 23 18 17 18 17 13 11 9 12 15 13 13 9 12
53 58 61 63 61 59 53 47 42 42 42 42 42 40 38 37 37 31 28 29 28 30 30 30 28 26 24 23 24 23 21 19 16 14 14 13 12 8 9 11 11 8 14 19 10
45 49 54 53 54 53 49 43 39 36 38 40 37 33 33 35 32 27 26 27 28 30 27 27 25 24 22 23 22 22 19 16 14 14 15 14 11 8 9 9 7 9 29 27 16
41 44 49 51 51 50 45 39 37 35 33 31 29 28 32 31 26 25 26 27 28 26 26 26 26 23 23 22 21 20 17 16 16 16 15 13 10 8 10 9 7 32 31 23 17
40 38 43 46 46 46 43 40 35 33 30 28 26 28 31 28 25 27 27 27 26 27 27 27 25 24 23 23 20 18 17 17 16 16 14 13 10 11 12 11 13 36 30 27 14